Time,TemperatureF,DewpointF,PressureIn,WindDirection,WindDirectionDegrees,WindSpeedMPH,WindSpeedGustMPH,Humidity,HourlyPrecipIn,Conditions,Clouds,dailyrainin,SoftwareType,DateUTC
2013-12-15 00:00:00,44.9,22.1,30.29,NW,323,3.0,8.0,40,0.00,,,0.00,VWS V14.01,2013-12-15 07:00:00,
2013-12-15 00:02:00,44.8,22.0,30.29,NNW,329,5.0,7.0,40,0.00,,,0.00,VWS V14.01,2013-12-15 07:02:00,
2013-12-15 00:05:00,44.8,22.0,30.29,NW,321,2.0,7.0,40,0.00,,,0.00,VWS V14.01,2013-12-15 07:05:00,
2013-12-15 00:07:00,44.7,21.9,30.29,NNW,335,4.0,5.0,40,0.00,,,0.00,VWS V14.01,2013-12-15 07:07:00,
2013-12-15 00:10:00,44.6,21.8,30.29,NNW,340,4.0,6.0,40,0.00,,,0.00,VWS V14.01,2013-12-15 07:10:00,
2013-12-15 00:12:00,44.5,22.3,30.29,NW,313,3.0,6.0,41,0.00,,,0.00,VWS V14.01,2013-12-15 07:12:00,
2013-12-15 00:15:00,44.5,22.3,30.29,NNW,340,4.0,7.0,41,0.00,,,0.00,VWS V14.01,2013-12-15 07:15:00,
2013-12-15 00:17:00,44.4,22.2,30.29,NW,314,4.0,6.0,41,0.00,,,0.00,VWS V14.01,2013-12-15 07:17:00,
2013-12-15 00:20:00,44.3,22.1,30.29,NNW,329,5.0,8.0,41,0.00,,,0.00,VWS V14.01,2013-12-15 07:20:00,
2013-12-15 00:22:00,44.3,22.1,30.29,NNW,327,3.0,7.0,41,0.00,,,0.00,VWS V14.01,2013-12-15 07:22:00,
2013-12-15 00:25:00,44.3,22.1,30.29,NNW,332,4.0,7.0,41,0.00,,,0.00,VWS V14.01,2013-12-15 07:25:00,
2013-12-15 00:27:00,44.2,22.0,30.29,North,360,4.0,6.0,41,0.00,,,0.00,VWS V14.01,2013-12-15 07:27:00,
2013-12-15 00:30:00,44.2,22.0,30.29,NW,315,4.0,8.0,41,0.00,,,0.00,VWS V14.01,2013-12-15 07:30:00,
2013-12-15 00:32:00,44.2,22.0,30.29,NW,325,4.0,6.0,41,0.00,,,0.00,VWS V14.01,2013-12-15 07:32:00,
2013-12-15 00:35:00,44.2,22.0,30.29,NNW,334,3.0,7.0,41,0.00,,,0.00,VWS V14.01,2013-12-15 07:35:00,
2013-12-15 00:37:00,44.2,22.0,30.29,NNW,332,3.0,6.0,41,0.00,,,0.00,VWS V14.01,2013-12-15 07:37:00,
2013-12-15 00:40:00,44.1,21.9,30.29,NNW,344,5.0,8.0,41,0.00,,,0.00,VWS V14.01,2013-12-15 07:40:00,
2013-12-15 00:42:00,44.1,21.9,30.29,NNW,328,4.0,6.0,41,0.00,,,0.00,VWS V14.01,2013-12-15 07:42:00,
2013-12-15 00:45:00,44.1,21.9,30.29,North,355,7.0,7.0,41,0.00,,,0.00,VWS V14.01,2013-12-15 07:45:00,
2013-12-15 00:47:00,44.1,21.9,30.30,NNW,343,4.0,8.0,41,0.00,,,0.00,VWS V14.01,2013-12-15 07:47:00,
2013-12-15 00:50:00,44.1,21.9,30.29,NNW,344,4.0,8.0,41,0.00,,,0.00,VWS V14.01,2013-12-15 07:50:00,
2013-12-15 00:57:00,44.0,21.8,30.29,NW,321,3.0,7.0,41,0.00,,,0.00,VWS V14.01,2013-12-15 07:57:00,
2013-12-15 01:00:00,43.9,21.7,30.29,NNW,333,4.0,7.0,41,0.00,,,0.00,VWS V14.01,2013-12-15 08:00:00,
2013-12-15 01:02:00,43.8,21.6,30.29,NNW,337,5.0,8.0,41,0.00,,,0.00,VWS V14.01,2013-12-15 08:02:00,
2013-12-15 01:05:00,43.8,21.6,30.29,NNW,344,7.0,8.0,41,0.00,,,0.00,VWS V14.01,2013-12-15 08:05:00,
2013-12-15 01:07:00,43.8,21.6,30.29,NW,308,5.0,8.0,41,0.00,,,0.00,VWS V14.01,2013-12-15 08:07:00,
2013-12-15 01:12:00,43.9,21.7,30.29,NNW,329,6.0,9.0,41,0.00,,,0.00,VWS V14.01,2013-12-15 08:12:00,
2013-12-15 01:15:00,43.9,21.7,30.29,NNW,343,5.0,9.0,41,0.00,,,0.00,VWS V14.01,2013-12-15 08:15:00,
2013-12-15 01:17:00,43.9,21.7,30.30,NNW,344,7.0,7.0,41,0.00,,,0.00,VWS V14.01,2013-12-15 08:17:00,
2013-12-15 01:20:00,43.8,21.6,30.30,North,5,8.0,9.0,41,0.00,,,0.00,VWS V14.01,2013-12-15 08:20:00,
2013-12-15 01:22:00,43.8,21.6,30.30,North,5,4.0,8.0,41,0.00,,,0.00,VWS V14.01,2013-12-15 08:22:00,
2013-12-15 01:25:00,44.0,21.8,30.29,NNW,329,9.0,9.0,41,0.00,,,0.00,VWS V14.01,2013-12-15 08:25:00,
2013-12-15 01:27:00,43.7,21.6,30.30,NNW,344,5.0,8.0,41,0.00,,,0.00,VWS V14.01,2013-12-15 08:27:00,
2013-12-15 01:30:00,43.6,21.5,30.30,NNW,346,7.0,10.0,41,0.00,,,0.00,VWS V14.01,2013-12-15 08:30:00,
2013-12-15 01:32:00,43.6,21.5,30.30,North,355,5.0,9.0,41,0.00,,,0.00,VWS V14.01,2013-12-15 08:32:00,
2013-12-15 01:35:00,43.5,22.0,30.30,NNW,344,6.0,10.0,42,0.00,,,0.00,VWS V14.01,2013-12-15 08:35:00,
2013-12-15 01:37:00,43.5,21.4,30.30,NNW,346,5.0,12.0,41,0.00,,,0.00,VWS V14.01,2013-12-15 08:37:00,
2013-12-15 01:40:00,43.4,21.9,30.30,NW,326,7.0,12.0,42,0.00,,,0.00,VWS V14.01,2013-12-15 08:40:00,
2013-12-15 01:42:00,43.4,21.9,30.30,North,5,7.0,9.0,42,0.00,,,0.00,VWS V14.01,2013-12-15 08:42:00,
2013-12-15 01:43:00,43.8,21.6,30.29,NNW,334,5.0,9.0,41,0.00,,,0.00,VWS V14.01,2013-12-15 08:43:00,
2013-12-15 01:45:00,43.4,21.9,30.30,NNW,345,5.0,9.0,42,0.00,,,0.00,VWS V14.01,2013-12-15 08:45:00,
2013-12-15 01:47:00,43.3,22.3,30.30,NNW,335,4.0,11.0,43,0.00,,,0.00,VWS V14.01,2013-12-15 08:47:00,
2013-12-15 01:50:00,43.2,22.2,30.30,NNW,342,7.0,11.0,43,0.00,,,0.00,VWS V14.01,2013-12-15 08:50:00,
2013-12-15 01:52:00,43.2,22.2,30.30,NNW,337,6.0,10.0,43,0.00,,,0.00,VWS V14.01,2013-12-15 08:52:00,
2013-12-15 01:55:00,43.1,22.7,30.30,North,355,8.0,11.0,44,0.00,,,0.00,VWS V14.01,2013-12-15 08:55:00,
2013-12-15 01:57:00,43.0,22.6,30.30,North,349,4.0,12.0,44,0.00,,,0.00,VWS V14.01,2013-12-15 08:57:00,
2013-12-15 02:00:00,42.9,22.5,30.30,North,355,5.0,12.0,44,0.00,,,0.00,VWS V14.01,2013-12-15 09:00:00,
2013-12-15 02:02:00,42.9,22.5,30.30,NW,325,5.0,12.0,44,0.00,,,0.00,VWS V14.01,2013-12-15 09:02:00,
2013-12-15 02:05:00,42.9,22.5,30.30,NW,304,4.0,12.0,44,0.00,,,0.00,VWS V14.01,2013-12-15 09:05:00,
2013-12-15 02:07:00,42.9,22.5,30.30,NNW,339,7.0,10.0,44,0.00,,,0.00,VWS V14.01,2013-12-15 09:07:00,
2013-12-15 02:10:00,42.9,22.0,30.30,WNW,302,6.0,11.0,43,0.00,,,0.00,VWS V14.01,2013-12-15 09:10:00,
2013-12-15 02:12:00,42.9,22.0,30.30,NW,315,10.0,10.0,43,0.00,,,0.00,VWS V14.01,2013-12-15 09:12:00,
2013-12-15 02:15:00,42.9,22.0,30.30,NNW,333,6.0,10.0,43,0.00,,,0.00,VWS V14.01,2013-12-15 09:15:00,
2013-12-15 02:17:00,43.0,22.0,30.30,NW,325,7.0,11.0,43,0.00,,,0.00,VWS V14.01,2013-12-15 09:17:00,
2013-12-15 02:20:00,43.0,22.0,30.30,NNW,341,8.0,12.0,43,0.00,,,0.00,VWS V14.01,2013-12-15 09:20:00,
2013-12-15 02:22:00,43.0,22.0,30.30,NNW,336,8.0,13.0,43,0.00,,,0.00,VWS V14.01,2013-12-15 09:22:00,
2013-12-15 02:25:00,43.0,22.0,30.30,NNW,333,4.0,13.0,43,0.00,,,0.00,VWS V14.01,2013-12-15 09:25:00,
2013-12-15 02:27:00,43.0,22.6,30.29,NW,319,7.0,12.0,44,0.00,,,0.00,VWS V14.01,2013-12-15 09:27:00,
2013-12-15 02:30:00,43.0,22.0,30.29,WNW,303,7.0,12.0,43,0.00,,,0.00,VWS V14.01,2013-12-15 09:30:00,
2013-12-15 02:32:00,43.0,22.0,30.30,NW,304,7.0,10.0,43,0.00,,,0.00,VWS V14.01,2013-12-15 09:32:00,
2013-12-15 02:35:00,43.0,22.0,30.30,NNW,328,6.0,10.0,43,0.00,,,0.00,VWS V14.01,2013-12-15 09:35:00,
2013-12-15 02:37:00,43.0,22.0,30.29,NW,306,6.0,10.0,43,0.00,,,0.00,VWS V14.01,2013-12-15 09:37:00,
2013-12-15 02:40:00,43.1,22.1,30.29,North,355,8.0,11.0,43,0.00,,,0.00,VWS V14.01,2013-12-15 09:40:00,
2013-12-15 02:42:00,43.1,22.1,30.29,NNW,336,8.0,11.0,43,0.00,,,0.00,VWS V14.01,2013-12-15 09:42:00,
2013-12-15 02:45:00,43.2,22.2,30.29,NNW,344,6.0,11.0,43,0.00,,,0.00,VWS V14.01,2013-12-15 09:45:00,
2013-12-15 02:47:00,43.3,22.3,30.29,NNW,333,6.0,12.0,43,0.00,,,0.00,VWS V14.01,2013-12-15 09:47:00,
2013-12-15 02:50:00,43.3,22.3,30.29,NNW,343,8.0,12.0,43,0.00,,,0.00,VWS V14.01,2013-12-15 09:50:00,
2013-12-15 02:52:00,43.3,22.3,30.29,NNW,336,4.0,9.0,43,0.00,,,0.00,VWS V14.01,2013-12-15 09:52:00,
2013-12-15 02:55:00,43.2,22.2,30.29,NNW,340,7.0,9.0,43,0.00,,,0.00,VWS V14.01,2013-12-15 09:55:00,
2013-12-15 02:57:00,43.3,22.3,30.28,NW,318,7.0,10.0,43,0.00,,,0.00,VWS V14.01,2013-12-15 09:57:00,
2013-12-15 03:00:00,43.3,22.3,30.29,North,360,7.0,10.0,43,0.00,,,0.00,VWS V14.01,2013-12-15 10:00:00,
2013-12-15 03:02:00,43.4,22.4,30.28,NNW,343,6.0,9.0,43,0.00,,,0.00,VWS V14.01,2013-12-15 10:02:00,
2013-12-15 03:05:00,43.5,22.5,30.28,North,355,9.0,11.0,43,0.00,,,0.00,VWS V14.01,2013-12-15 10:05:00,
2013-12-15 03:07:00,43.5,22.5,30.28,NNW,348,3.0,10.0,43,0.00,,,0.00,VWS V14.01,2013-12-15 10:07:00,
2013-12-15 03:10:00,43.6,22.6,30.28,NW,325,6.0,11.0,43,0.00,,,0.00,VWS V14.01,2013-12-15 10:10:00,
2013-12-15 03:12:00,43.6,22.6,30.28,NNW,342,8.0,10.0,43,0.00,,,0.00,VWS V14.01,2013-12-15 10:12:00,
2013-12-15 03:15:00,43.6,22.6,30.28,NNW,341,11.0,13.0,43,0.00,,,0.00,VWS V14.01,2013-12-15 10:15:00,
2013-12-15 03:17:00,43.7,22.7,30.28,NW,321,8.0,15.0,43,0.00,,,0.00,VWS V14.01,2013-12-15 10:17:00,
2013-12-15 03:20:00,43.7,22.7,30.28,NW,316,8.0,15.0,43,0.00,,,0.00,VWS V14.01,2013-12-15 10:20:00,
2013-12-15 03:22:00,43.7,22.7,30.28,North,355,8.0,12.0,43,0.00,,,0.00,VWS V14.01,2013-12-15 10:22:00,
2013-12-15 03:25:00,43.6,22.6,30.28,NW,314,12.0,13.0,43,0.00,,,0.00,VWS V14.01,2013-12-15 10:25:00,
2013-12-15 03:27:00,43.7,22.7,30.28,NW,305,10.0,16.0,43,0.00,,,0.00,VWS V14.01,2013-12-15 10:27:00,
2013-12-15 03:30:00,43.7,22.7,30.28,NW,314,5.0,16.0,43,0.00,,,0.00,VWS V14.01,2013-12-15 10:30:00,
2013-12-15 03:32:00,43.6,22.6,30.28,NNW,336,5.0,11.0,43,0.00,,,0.00,VWS V14.01,2013-12-15 10:32:00,
2013-12-15 03:35:00,43.5,22.5,30.29,NNW,327,5.0,11.0,43,0.00,,,0.00,VWS V14.01,2013-12-15 10:35:00,
2013-12-15 03:37:00,43.4,22.4,30.29,NW,312,8.0,12.0,43,0.00,,,0.00,VWS V14.01,2013-12-15 10:37:00,
2013-12-15 03:40:00,43.4,22.4,30.29,NW,317,7.0,12.0,43,0.00,,,0.00,VWS V14.01,2013-12-15 10:40:00,
2013-12-15 03:42:00,43.3,22.3,30.28,NW,306,5.0,10.0,43,0.00,,,0.00,VWS V14.01,2013-12-15 10:42:00,
2013-12-15 03:45:00,43.3,22.3,30.28,NNW,329,6.0,11.0,43,0.00,,,0.00,VWS V14.01,2013-12-15 10:45:00,
2013-12-15 03:47:00,43.2,22.2,30.28,NW,313,6.0,12.0,43,0.00,,,0.00,VWS V14.01,2013-12-15 10:47:00,
2013-12-15 03:50:00,43.2,22.2,30.28,NW,319,5.0,12.0,43,0.00,,,0.00,VWS V14.01,2013-12-15 10:50:00,
2013-12-15 03:52:00,43.1,22.1,30.28,NNW,331,5.0,11.0,43,0.00,,,0.00,VWS V14.01,2013-12-15 10:52:00,
2013-12-15 03:55:00,43.1,22.1,30.28,NNW,344,8.0,12.0,43,0.00,,,0.00,VWS V14.01,2013-12-15 10:55:00,
2013-12-15 03:57:00,43.0,22.0,30.28,NW,314,7.0,12.0,43,0.00,,,0.00,VWS V14.01,2013-12-15 10:57:00,
2013-12-15 04:00:00,43.1,22.1,30.28,NW,308,6.0,12.0,43,0.00,,,0.00,VWS V14.01,2013-12-15 11:00:00,
2013-12-15 04:02:00,43.0,22.0,30.28,North,350,7.0,12.0,43,0.00,,,0.00,VWS V14.01,2013-12-15 11:02:00,
2013-12-15 04:05:00,43.1,21.6,30.28,North,360,7.0,12.0,42,0.00,,,0.00,VWS V14.01,2013-12-15 11:05:00,
2013-12-15 04:07:00,43.0,21.5,30.28,North,355,10.0,13.0,42,0.00,,,0.00,VWS V14.01,2013-12-15 11:07:00,
2013-12-15 04:10:00,43.0,22.0,30.28,North,360,8.0,13.0,43,0.00,,,0.00,VWS V14.01,2013-12-15 11:10:00,
2013-12-15 04:12:00,43.0,21.5,30.28,NNW,337,11.0,11.0,42,0.00,,,0.00,VWS V14.01,2013-12-15 11:12:00,
2013-12-15 04:15:00,42.9,21.4,30.28,NW,319,4.0,11.0,42,0.00,,,0.00,VWS V14.01,2013-12-15 11:15:00,
2013-12-15 04:17:00,42.8,21.3,30.28,NNW,336,5.0,10.0,42,0.00,,,0.00,VWS V14.01,2013-12-15 11:17:00,
2013-12-15 04:20:00,42.8,21.9,30.28,NW,322,5.0,11.0,43,0.00,,,0.00,VWS V14.01,2013-12-15 11:20:00,
2013-12-15 04:22:00,42.7,21.8,30.28,NNW,348,10.0,11.0,43,0.00,,,0.00,VWS V14.01,2013-12-15 11:22:00,
2013-12-15 04:25:00,42.6,21.7,30.28,NW,313,10.0,11.0,43,0.00,,,0.00,VWS V14.01,2013-12-15 11:25:00,
2013-12-15 04:27:00,42.6,21.7,30.28,NNW,344,9.0,11.0,43,0.00,,,0.00,VWS V14.01,2013-12-15 11:27:00,
2013-12-15 04:30:00,42.5,21.6,30.28,NNW,338,5.0,11.0,43,0.00,,,0.00,VWS V14.01,2013-12-15 11:30:00,
2013-12-15 04:32:00,42.5,22.1,30.28,NNW,331,4.0,11.0,44,0.00,,,0.00,VWS V14.01,2013-12-15 11:32:00,
2013-12-15 04:35:00,42.5,22.1,30.28,NW,326,7.0,11.0,44,0.00,,,0.00,VWS V14.01,2013-12-15 11:35:00,
2013-12-15 04:37:00,42.4,22.0,30.28,NW,317,5.0,11.0,44,0.00,,,0.00,VWS V14.01,2013-12-15 11:37:00,
2013-12-15 04:40:00,42.4,22.0,30.28,NW,324,6.0,11.0,44,0.00,,,0.00,VWS V14.01,2013-12-15 11:40:00,
2013-12-15 04:42:00,42.4,22.0,30.27,NW,317,7.0,11.0,44,0.00,,,0.00,VWS V14.01,2013-12-15 11:42:00,
2013-12-15 04:45:00,42.4,22.0,30.28,North,360,8.0,11.0,44,0.00,,,0.00,VWS V14.01,2013-12-15 11:45:00,
2013-12-15 04:47:00,42.3,22.0,30.28,NNW,327,7.0,11.0,44,0.00,,,0.00,VWS V14.01,2013-12-15 11:47:00,
2013-12-15 04:50:00,42.3,22.0,30.28,NNW,345,7.0,11.0,44,0.00,,,0.00,VWS V14.01,2013-12-15 11:50:00,
2013-12-15 04:52:00,42.2,21.9,30.28,North,360,9.0,11.0,44,0.00,,,0.00,VWS V14.01,2013-12-15 11:52:00,
2013-12-15 04:55:00,42.2,21.9,30.28,NW,310,9.0,11.0,44,0.00,,,0.00,VWS V14.01,2013-12-15 11:55:00,
2013-12-15 04:57:00,42.2,21.9,30.28,NNW,348,8.0,11.0,44,0.00,,,0.00,VWS V14.01,2013-12-15 11:57:00,
2013-12-15 05:00:00,42.2,21.9,30.28,NNW,344,7.0,11.0,44,0.00,,,0.00,VWS V14.01,2013-12-15 12:00:00,
2013-12-15 05:02:00,42.2,21.9,30.28,NNW,346,7.0,11.0,44,0.00,,,0.00,VWS V14.01,2013-12-15 12:02:00,
2013-12-15 05:05:00,42.2,21.9,30.28,NW,323,9.0,11.0,44,0.00,,,0.00,VWS V14.01,2013-12-15 12:05:00,
2013-12-15 05:07:00,42.2,21.9,30.28,NW,323,6.0,9.0,44,0.00,,,0.00,VWS V14.01,2013-12-15 12:07:00,
2013-12-15 05:10:00,42.2,22.4,30.28,NNW,342,5.0,10.0,45,0.00,,,0.00,VWS V14.01,2013-12-15 12:10:00,
2013-12-15 05:12:00,42.1,22.3,30.28,NNW,331,7.0,10.0,45,0.00,,,0.00,VWS V14.01,2013-12-15 12:12:00,
2013-12-15 05:15:00,42.2,22.4,30.28,NNW,342,3.0,10.0,45,0.00,,,0.00,VWS V14.01,2013-12-15 12:15:00,
2013-12-15 05:17:00,42.2,22.4,30.28,NW,322,8.0,11.0,45,0.00,,,0.00,VWS V14.01,2013-12-15 12:17:00,
2013-12-15 05:20:00,42.2,22.4,30.28,North,360,7.0,11.0,45,0.00,,,0.00,VWS V14.01,2013-12-15 12:20:00,
2013-12-15 05:22:00,42.2,22.4,30.27,NW,304,6.0,10.0,45,0.00,,,0.00,VWS V14.01,2013-12-15 12:22:00,
2013-12-15 05:25:00,42.2,22.4,30.28,North,5,5.0,10.0,45,0.00,,,0.00,VWS V14.01,2013-12-15 12:25:00,
2013-12-15 05:27:00,42.2,22.4,30.28,NW,317,4.0,10.0,45,0.00,,,0.00,VWS V14.01,2013-12-15 12:27:00,
2013-12-15 05:30:00,42.2,22.4,30.28,NW,309,6.0,10.0,45,0.00,,,0.00,VWS V14.01,2013-12-15 12:30:00,
2013-12-15 05:32:00,42.2,22.4,30.27,NNW,330,7.0,13.0,45,0.00,,,0.00,VWS V14.01,2013-12-15 12:32:00,
2013-12-15 05:35:00,42.3,22.5,30.28,NW,319,4.0,13.0,45,0.00,,,0.00,VWS V14.01,2013-12-15 12:35:00,
2013-12-15 05:37:00,42.3,22.5,30.27,NW,313,8.0,12.0,45,0.00,,,0.00,VWS V14.01,2013-12-15 12:37:00,
2013-12-15 05:40:00,42.3,22.5,30.27,NNW,332,9.0,12.0,45,0.00,,,0.00,VWS V14.01,2013-12-15 12:40:00,
2013-12-15 05:42:00,42.3,22.5,30.27,NW,325,8.0,10.0,45,0.00,,,0.00,VWS V14.01,2013-12-15 12:42:00,
2013-12-15 05:45:00,42.2,22.4,30.27,North,355,5.0,10.0,45,0.00,,,0.00,VWS V14.01,2013-12-15 12:45:00,
2013-12-15 05:47:00,42.2,22.4,30.28,NNW,340,4.0,9.0,45,0.00,,,0.00,VWS V14.01,2013-12-15 12:47:00,
2013-12-15 05:50:00,42.2,22.4,30.28,NW,319,6.0,9.0,45,0.00,,,0.00,VWS V14.01,2013-12-15 12:50:00,
2013-12-15 05:52:00,42.2,22.4,30.28,NNW,342,6.0,12.0,45,0.00,,,0.00,VWS V14.01,2013-12-15 12:52:00,
2013-12-15 05:55:00,42.2,22.4,30.28,NW,323,6.0,12.0,45,0.00,,,0.00,VWS V14.01,2013-12-15 12:55:00,
2013-12-15 05:57:00,42.2,22.4,30.27,NW,324,8.0,12.0,45,0.00,,,0.00,VWS V14.01,2013-12-15 12:57:00,
2013-12-15 06:00:00,42.2,22.4,30.27,North,360,7.0,13.0,45,0.00,,,0.00,VWS V14.01,2013-12-15 13:00:00,
2013-12-15 06:02:00,42.2,22.4,30.27,North,355,9.0,10.0,45,0.00,,,0.00,VWS V14.01,2013-12-15 13:02:00,
2013-12-15 06:05:00,42.1,22.3,30.27,NNW,330,8.0,10.0,45,0.00,,,0.00,VWS V14.01,2013-12-15 13:05:00,
2013-12-15 06:07:00,42.1,22.3,30.27,NW,321,8.0,11.0,45,0.00,,,0.00,VWS V14.01,2013-12-15 13:07:00,
2013-12-15 06:10:00,42.1,22.3,30.27,NNW,347,4.0,11.0,45,0.00,,,0.00,VWS V14.01,2013-12-15 13:10:00,
2013-12-15 06:12:00,42.1,22.3,30.27,NNW,340,11.0,11.0,45,0.00,,,0.00,VWS V14.01,2013-12-15 13:12:00,
2013-12-15 06:15:00,42.1,22.3,30.27,NNW,343,7.0,11.0,45,0.00,,,0.00,VWS V14.01,2013-12-15 13:15:00,
2013-12-15 06:17:00,42.1,22.3,30.27,NNW,346,9.0,11.0,45,0.00,,,0.00,VWS V14.01,2013-12-15 13:17:00,
2013-12-15 06:20:00,42.1,22.3,30.27,NNW,346,4.0,11.0,45,0.00,,,0.00,VWS V14.01,2013-12-15 13:20:00,
2013-12-15 06:22:00,42.0,22.2,30.27,NNW,345,4.0,10.0,45,0.00,,,0.00,VWS V14.01,2013-12-15 13:22:00,
2013-12-15 06:25:00,42.0,22.2,30.27,NW,320,9.0,11.0,45,0.00,,,0.00,VWS V14.01,2013-12-15 13:25:00,
2013-12-15 06:27:00,42.0,22.2,30.27,NNW,336,9.0,11.0,45,0.00,,,0.00,VWS V14.01,2013-12-15 13:27:00,
2013-12-15 06:30:00,42.0,22.2,30.27,North,355,6.0,11.0,45,0.00,,,0.00,VWS V14.01,2013-12-15 13:30:00,
2013-12-15 06:32:00,42.0,22.2,30.27,NNW,348,6.0,12.0,45,0.00,,,0.00,VWS V14.01,2013-12-15 13:32:00,
2013-12-15 06:35:00,42.1,22.3,30.27,NW,321,2.0,12.0,45,0.00,,,0.00,VWS V14.01,2013-12-15 13:35:00,
2013-12-15 06:37:00,42.1,22.3,30.27,NNW,327,10.0,10.0,45,0.00,,,0.00,VWS V14.01,2013-12-15 13:37:00,
2013-12-15 06:40:00,42.2,22.4,30.27,NW,311,4.0,11.0,45,0.00,,,0.00,VWS V14.01,2013-12-15 13:40:00,
2013-12-15 06:42:00,42.3,22.5,30.26,NNW,333,7.0,11.0,45,0.00,,,0.00,VWS V14.01,2013-12-15 13:42:00,
2013-12-15 06:45:00,42.3,22.5,30.26,North,355,8.0,11.0,45,0.00,,,0.00,VWS V14.01,2013-12-15 13:45:00,
2013-12-15 06:47:00,42.4,22.6,30.26,NW,325,5.0,9.0,45,0.00,,,0.00,VWS V14.01,2013-12-15 13:47:00,
2013-12-15 06:50:00,42.4,22.6,30.26,NW,326,8.0,9.0,45,0.00,,,0.00,VWS V14.01,2013-12-15 13:50:00,
2013-12-15 06:52:00,42.5,22.1,30.26,NNW,342,5.0,11.0,44,0.00,,,0.00,VWS V14.01,2013-12-15 13:52:00,
2013-12-15 06:55:00,42.5,22.1,30.26,North,355,8.0,11.0,44,0.00,,,0.00,VWS V14.01,2013-12-15 13:55:00,
2013-12-15 06:57:00,42.6,22.2,30.26,North,349,8.0,10.0,44,0.00,,,0.00,VWS V14.01,2013-12-15 13:57:00,
2013-12-15 07:00:00,42.7,22.3,30.26,North,349,4.0,10.0,44,0.00,,,0.00,VWS V14.01,2013-12-15 14:00:00,
2013-12-15 07:02:00,42.7,22.3,30.26,NW,305,4.0,9.0,44,0.00,,,0.00,VWS V14.01,2013-12-15 14:02:00,
2013-12-15 07:05:00,42.8,22.4,30.26,NNW,340,3.0,9.0,44,0.00,,,0.00,VWS V14.01,2013-12-15 14:05:00,
2013-12-15 07:07:00,42.8,22.4,30.25,NNW,334,5.0,8.0,44,0.00,,,0.00,VWS V14.01,2013-12-15 14:07:00,
2013-12-15 07:10:00,42.8,22.4,30.26,North,355,4.0,8.0,44,0.00,,,0.00,VWS V14.01,2013-12-15 14:10:00,
2013-12-15 07:12:00,42.9,22.5,30.26,NNW,339,4.0,8.0,44,0.00,,,0.00,VWS V14.01,2013-12-15 14:12:00,
2013-12-15 07:15:00,43.1,22.7,30.26,NW,325,5.0,8.0,44,0.00,,,0.00,VWS V14.01,2013-12-15 14:15:00,
2013-12-15 07:17:00,43.4,23.0,30.26,NNW,333,7.0,9.0,44,0.00,,,0.00,VWS V14.01,2013-12-15 14:17:00,
2013-12-15 07:20:00,43.6,22.6,30.26,NNW,327,5.0,10.0,43,0.00,,,0.00,VWS V14.01,2013-12-15 14:20:00,
2013-12-15 07:22:00,43.9,22.9,30.26,NNW,333,7.0,11.0,43,0.00,,,0.00,VWS V14.01,2013-12-15 14:22:00,
2013-12-15 07:25:00,44.0,23.0,30.26,NW,316,5.0,11.0,43,0.00,,,0.00,VWS V14.01,2013-12-15 14:25:00,
2013-12-15 07:27:00,44.3,23.2,30.26,NW,323,7.0,10.0,43,0.00,,,0.00,VWS V14.01,2013-12-15 14:27:00,
2013-12-15 07:30:00,44.5,22.9,30.26,North,5,7.0,12.0,42,0.00,,,0.00,VWS V14.01,2013-12-15 14:30:00,
2013-12-15 07:32:00,44.9,22.6,30.27,NNW,335,5.0,10.0,41,0.00,,,0.00,VWS V14.01,2013-12-15 14:32:00,
2013-12-15 07:35:00,44.9,22.6,30.27,NW,315,7.0,11.0,41,0.00,,,0.00,VWS V14.01,2013-12-15 14:35:00,
2013-12-15 07:37:00,44.9,22.6,30.27,NW,325,7.0,10.0,41,0.00,,,0.00,VWS V14.01,2013-12-15 14:37:00,
2013-12-15 07:40:00,45.0,22.7,30.27,NW,323,10.0,12.0,41,0.00,,,0.00,VWS V14.01,2013-12-15 14:40:00,
2013-12-15 07:42:00,45.1,22.8,30.27,NNW,337,8.0,13.0,41,0.00,,,0.00,VWS V14.01,2013-12-15 14:42:00,
2013-12-15 07:45:00,45.2,22.9,30.27,NNE,18,6.0,13.0,41,0.00,,,0.00,VWS V14.01,2013-12-15 14:45:00,
2013-12-15 07:48:00,45.3,23.0,30.28,NNW,331,7.0,11.0,41,0.00,,,0.00,VWS V14.01,2013-12-15 14:48:00,
2013-12-15 07:50:00,45.4,23.1,30.28,NNW,329,7.0,12.0,41,0.00,,,0.00,VWS V14.01,2013-12-15 14:50:00,
2013-12-15 07:53:00,45.5,23.2,30.28,NW,323,4.0,10.0,41,0.00,,,0.00,VWS V14.01,2013-12-15 14:53:00,
2013-12-15 07:55:00,45.6,23.3,30.28,WNW,288,7.0,11.0,41,0.00,,,0.00,VWS V14.01,2013-12-15 14:55:00,
2013-12-15 07:58:00,45.8,23.5,30.28,WNW,293,4.0,12.0,41,0.00,,,0.00,VWS V14.01,2013-12-15 14:58:00,
2013-12-15 08:00:00,45.8,23.5,30.28,NNW,334,5.0,12.0,41,0.00,,,0.00,VWS V14.01,2013-12-15 15:00:00,
2013-12-15 08:03:00,46.0,23.6,30.28,NNW,334,1.0,8.0,41,0.00,,,0.00,VWS V14.01,2013-12-15 15:03:00,
2013-12-15 08:05:00,46.2,23.8,30.29,NW,325,5.0,9.0,41,0.00,,,0.00,VWS V14.01,2013-12-15 15:05:00,
2013-12-15 08:08:00,46.4,23.4,30.29,NNW,331,3.0,7.0,40,0.00,,,0.00,VWS V14.01,2013-12-15 15:08:00,
2013-12-15 08:10:00,46.6,23.6,30.29,NW,320,3.0,8.0,40,0.00,,,0.00,VWS V14.01,2013-12-15 15:10:00,
2013-12-15 08:13:00,46.9,23.9,30.29,NNW,330,6.0,7.0,40,0.00,,,0.00,VWS V14.01,2013-12-15 15:13:00,
2013-12-15 08:15:00,47.1,24.0,30.29,NW,318,6.0,8.0,40,0.00,,,0.00,VWS V14.01,2013-12-15 15:15:00,
2013-12-15 08:18:00,47.2,24.1,30.29,NNW,328,6.0,8.0,40,0.00,,,0.00,VWS V14.01,2013-12-15 15:18:00,
2013-12-15 08:20:00,47.3,23.6,30.29,NW,325,5.0,8.0,39,0.00,,,0.00,VWS V14.01,2013-12-15 15:20:00,
2013-12-15 08:23:00,47.7,24.0,30.29,WNW,285,1.0,5.0,39,0.00,,,0.00,VWS V14.01,2013-12-15 15:23:00,
2013-12-15 08:25:00,47.9,24.1,30.29,NW,308,1.0,6.0,39,0.00,,,0.00,VWS V14.01,2013-12-15 15:25:00,
2013-12-15 08:28:00,48.1,24.3,30.29,NW,306,0.0,6.0,39,0.00,,,0.00,VWS V14.01,2013-12-15 15:28:00,
2013-12-15 08:30:00,48.3,24.5,30.29,NNW,335,3.0,6.0,39,0.00,,,0.00,VWS V14.01,2013-12-15 15:30:00,
2013-12-15 08:33:00,48.5,24.1,30.29,NNW,331,2.0,6.0,38,0.00,,,0.00,VWS V14.01,2013-12-15 15:33:00,
2013-12-15 08:35:00,48.5,24.1,30.29,NNW,333,2.0,7.0,38,0.00,,,0.00,VWS V14.01,2013-12-15 15:35:00,
2013-12-15 08:38:00,48.8,24.3,30.29,NNW,333,3.0,5.0,38,0.00,,,0.00,VWS V14.01,2013-12-15 15:38:00,
2013-12-15 08:40:00,49.0,24.5,30.29,NNW,329,3.0,5.0,38,0.00,,,0.00,VWS V14.01,2013-12-15 15:40:00,
2013-12-15 08:43:00,49.3,24.8,30.29,NNW,339,4.0,6.0,38,0.00,,,0.00,VWS V14.01,2013-12-15 15:43:00,
2013-12-15 08:45:00,49.5,24.3,30.29,NNW,347,3.0,6.0,37,0.00,,,0.00,VWS V14.01,2013-12-15 15:45:00,
2013-12-15 08:48:00,49.7,24.5,30.29,North,350,1.0,6.0,37,0.00,,,0.00,VWS V14.01,2013-12-15 15:48:00,
2013-12-15 08:50:00,49.8,23.9,30.29,NNW,336,1.0,6.0,36,0.00,,,0.00,VWS V14.01,2013-12-15 15:50:00,
2013-12-15 08:53:00,50.1,24.2,30.29,NNW,336,0.0,1.0,36,0.00,,,0.00,VWS V14.01,2013-12-15 15:53:00,
2013-12-15 08:55:00,50.3,24.4,30.29,NNW,340,2.0,4.0,36,0.00,,,0.00,VWS V14.01,2013-12-15 15:55:00,
2013-12-15 08:58:00,50.9,24.9,30.29,NNW,340,0.0,3.0,36,0.00,,,0.00,VWS V14.01,2013-12-15 15:58:00,
2013-12-15 09:00:00,51.1,24.4,30.29,NNW,340,0.0,3.0,35,0.00,,,0.00,VWS V14.01,2013-12-15 16:00:00,
2013-12-15 09:03:00,51.5,24.8,30.29,NNW,340,0.0,3.0,35,0.00,,,0.00,VWS V14.01,2013-12-15 16:03:00,
2013-12-15 09:05:00,51.8,24.3,30.29,NNW,340,1.0,3.0,34,0.00,,,0.00,VWS V14.01,2013-12-15 16:05:00,
2013-12-15 09:08:00,51.5,24.8,30.29,NNW,340,0.0,2.0,35,0.00,,,0.00,VWS V14.01,2013-12-15 16:08:00,
2013-12-15 09:10:00,51.7,25.0,30.29,NNW,340,0.0,3.0,35,0.00,,,0.00,VWS V14.01,2013-12-15 16:10:00,
2013-12-15 09:13:00,52.1,24.6,30.29,NNW,340,1.0,1.0,34,0.00,,,0.00,VWS V14.01,2013-12-15 16:13:00,
2013-12-15 09:15:00,51.8,24.3,30.29,NNW,340,0.0,1.0,34,0.00,,,0.00,VWS V14.01,2013-12-15 16:15:00,
2013-12-15 09:18:00,52.2,24.7,30.29,ENE,71,1.0,4.0,34,0.00,,,0.00,VWS V14.01,2013-12-15 16:18:00,
2013-12-15 09:20:00,52.5,25.0,30.29,ENE,71,0.0,4.0,34,0.00,,,0.00,VWS V14.01,2013-12-15 16:20:00,
2013-12-15 09:23:00,53.0,24.7,30.30,North,350,0.0,4.0,33,0.00,,,0.00,VWS V14.01,2013-12-15 16:23:00,
2013-12-15 09:25:00,53.0,24.7,30.30,North,350,0.0,4.0,33,0.00,,,0.00,VWS V14.01,2013-12-15 16:25:00,
2013-12-15 09:28:00,53.3,25.0,30.30,NE,34,1.0,2.0,33,0.00,,,0.00,VWS V14.01,2013-12-15 16:28:00,
2013-12-15 09:30:00,53.3,25.7,30.30,ENE,63,2.0,2.0,34,0.00,,,0.00,VWS V14.01,2013-12-15 16:30:00,
2013-12-15 09:33:00,53.6,25.2,30.30,NE,46,2.0,2.0,33,0.00,,,0.00,VWS V14.01,2013-12-15 16:33:00,
2013-12-15 09:35:00,53.5,24.4,30.30,NE,46,1.0,2.0,32,0.00,,,0.00,VWS V14.01,2013-12-15 16:35:00,
2013-12-15 09:38:00,53.8,25.4,30.30,NNE,27,0.0,4.0,33,0.00,,,0.00,VWS V14.01,2013-12-15 16:38:00,
2013-12-15 09:40:00,54.0,25.6,30.30,NNE,27,0.0,4.0,33,0.00,,,0.00,VWS V14.01,2013-12-15 16:40:00,
2013-12-15 09:43:00,54.7,26.2,30.30,NNE,15,3.0,3.0,33,0.00,,,0.00,VWS V14.01,2013-12-15 16:43:00,
2013-12-15 09:45:00,54.6,25.4,30.30,NNW,348,3.0,5.0,32,0.00,,,0.00,VWS V14.01,2013-12-15 16:45:00,
2013-12-15 09:48:00,54.3,26.5,30.30,ENE,66,2.0,5.0,34,0.00,,,0.00,VWS V14.01,2013-12-15 16:48:00,
2013-12-15 09:50:00,54.3,26.5,30.30,East,89,1.0,6.0,34,0.00,,,0.00,VWS V14.01,2013-12-15 16:50:00,
2013-12-15 09:53:00,54.2,27.2,30.30,NE,42,2.0,4.0,35,0.00,,,0.00,VWS V14.01,2013-12-15 16:53:00,
2013-12-15 09:55:00,54.6,27.5,30.30,NE,43,0.0,5.0,35,0.00,,,0.00,VWS V14.01,2013-12-15 16:55:00,
2013-12-15 09:58:00,55.0,26.5,30.30,NE,42,2.0,3.0,33,0.00,,,0.00,VWS V14.01,2013-12-15 16:58:00,
2013-12-15 10:00:00,54.9,26.4,30.30,NNE,30,0.0,3.0,33,0.00,,,0.00,VWS V14.01,2013-12-15 17:00:00,
2013-12-15 10:03:00,55.4,26.8,30.30,SE,126,2.0,4.0,33,0.00,,,0.00,VWS V14.01,2013-12-15 17:03:00,
2013-12-15 10:05:00,54.9,26.4,30.30,ESE,103,1.0,4.0,33,0.00,,,0.00,VWS V14.01,2013-12-15 17:05:00,
2013-12-15 10:08:00,54.9,26.4,30.30,SSE,148,4.0,5.0,33,0.00,,,0.00,VWS V14.01,2013-12-15 17:08:00,
2013-12-15 10:10:00,54.6,26.1,30.30,SSE,148,0.0,5.0,33,0.00,,,0.00,VWS V14.01,2013-12-15 17:10:00,
2013-12-15 10:13:00,55.1,26.5,30.30,SE,144,0.0,4.0,33,0.00,,,0.00,VWS V14.01,2013-12-15 17:13:00,
2013-12-15 10:15:00,55.7,27.1,30.29,SSW,196,1.0,4.0,33,0.00,,,0.00,VWS V14.01,2013-12-15 17:15:00,
2013-12-15 10:18:00,56.8,27.3,30.29,SSW,196,0.0,2.0,32,0.00,,,0.00,VWS V14.01,2013-12-15 17:18:00,
2013-12-15 10:20:00,56.9,25.8,30.29,SSW,196,0.0,2.0,30,0.00,,,0.00,VWS V14.01,2013-12-15 17:20:00,
2013-12-15 10:23:00,56.9,26.6,30.29,SSW,196,0.0,1.0,31,0.00,,,0.00,VWS V14.01,2013-12-15 17:23:00,
2013-12-15 10:25:00,56.7,26.4,30.29,SSW,194,1.0,3.0,31,0.00,,,0.00,VWS V14.01,2013-12-15 17:25:00,
2013-12-15 10:28:00,57.1,26.0,30.29,SSW,194,0.0,2.0,30,0.00,,,0.00,VWS V14.01,2013-12-15 17:28:00,
2013-12-15 10:30:00,57.2,26.1,30.28,SSW,194,0.0,2.0,30,0.00,,,0.00,VWS V14.01,2013-12-15 17:30:00,
2013-12-15 10:33:00,57.2,26.9,30.28,SSW,196,0.0,4.0,31,0.00,,,0.00,VWS V14.01,2013-12-15 17:33:00,
2013-12-15 10:35:00,57.7,26.5,30.29,SSW,196,0.0,4.0,30,0.00,,,0.00,VWS V14.01,2013-12-15 17:35:00,
2013-12-15 10:38:00,56.9,25.8,30.28,WNW,300,3.0,4.0,30,0.00,,,0.00,VWS V14.01,2013-12-15 17:38:00,
2013-12-15 10:40:00,57.0,25.9,30.28,WNW,300,0.0,4.0,30,0.00,,,0.00,VWS V14.01,2013-12-15 17:40:00,
2013-12-15 10:43:00,57.2,26.1,30.28,WNW,300,0.0,2.0,30,0.00,,,0.00,VWS V14.01,2013-12-15 17:43:00,
2013-12-15 10:45:00,57.5,26.3,30.28,WNW,300,0.0,2.0,30,0.00,,,0.00,VWS V14.01,2013-12-15 17:45:00,
2013-12-15 10:48:00,58.8,27.5,30.28,WSW,254,0.0,2.0,30,0.00,,,0.00,VWS V14.01,2013-12-15 17:48:00,
2013-12-15 10:50:00,58.9,26.7,30.28,WSW,254,1.0,2.0,29,0.00,,,0.00,VWS V14.01,2013-12-15 17:50:00,
2013-12-15 10:53:00,58.8,26.6,30.28,WSW,254,1.0,2.0,29,0.00,,,0.00,VWS V14.01,2013-12-15 17:53:00,
2013-12-15 10:58:00,57.5,25.5,30.28,SSE,167,2.0,5.0,29,0.00,,,0.00,VWS V14.01,2013-12-15 17:58:00,
2013-12-15 11:00:00,57.1,26.0,30.27,SSE,167,2.0,5.0,30,0.00,,,0.00,VWS V14.01,2013-12-15 18:00:00,
2013-12-15 11:05:00,57.8,26.6,30.27,SSE,167,0.0,2.0,30,0.00,,,0.00,VWS V14.01,2013-12-15 18:05:00,
2013-12-15 11:08:00,58.7,26.5,30.27,SSE,158,0.0,4.0,29,0.00,,,0.00,VWS V14.01,2013-12-15 18:08:00,
2013-12-15 11:10:00,58.9,25.9,30.27,SSE,157,2.0,4.0,28,0.00,,,0.00,VWS V14.01,2013-12-15 18:10:00,
2013-12-15 11:15:00,58.5,26.4,30.26,SSE,157,1.0,4.0,29,0.00,,,0.00,VWS V14.01,2013-12-15 18:15:00,
2013-12-15 11:28:00,58.9,25.9,30.28,WSW,254,1.0,2.0,28,0.00,,,0.00,VWS V14.01,2013-12-15 18:28:00,
2013-12-15 11:33:00,60.0,26.0,30.25,ESE,117,2.0,4.0,27,0.00,,,0.00,VWS V14.01,2013-12-15 18:33:00,
2013-12-15 11:36:00,57.2,26.1,30.27,SSE,167,0.0,2.0,30,0.00,,,0.00,VWS V14.01,2013-12-15 18:36:00,
2013-12-15 11:38:00,60.4,26.3,30.25,East,101,4.0,4.0,27,0.00,,,0.00,VWS V14.01,2013-12-15 18:38:00,
2013-12-15 11:40:00,60.5,25.5,30.25,ENE,69,4.0,4.0,26,0.00,,,0.00,VWS V14.01,2013-12-15 18:40:00,
2013-12-15 11:45:00,60.2,25.2,30.25,NNE,32,0.0,4.0,26,0.00,,,0.00,VWS V14.01,2013-12-15 18:45:00,
2013-12-15 11:46:00,58.4,26.3,30.26,SSE,157,0.0,4.0,29,0.00,,,0.00,VWS V14.01,2013-12-15 18:46:00,
2013-12-15 11:48:00,60.9,26.7,30.25,NE,42,0.0,3.0,27,0.00,,,0.00,VWS V14.01,2013-12-15 18:48:00,
2013-12-15 11:50:00,61.1,25.0,30.25,North,5,0.0,3.0,25,0.00,,,0.00,VWS V14.01,2013-12-15 18:50:00,
2013-12-15 11:51:00,59.0,26.8,30.26,SSE,157,0.0,4.0,29,0.00,,,0.00,VWS V14.01,2013-12-15 18:51:00,
2013-12-15 11:53:00,61.7,25.5,30.25,NNE,14,3.0,4.0,25,0.00,,,0.00,VWS V14.01,2013-12-15 18:53:00,
2013-12-15 11:55:00,61.6,24.5,30.25,North,351,2.0,6.0,24,0.00,,,0.00,VWS V14.01,2013-12-15 18:55:00,
2013-12-15 11:56:00,58.7,25.7,30.26,SSE,157,0.0,1.0,28,0.00,,,0.00,VWS V14.01,2013-12-15 18:56:00,
2013-12-15 11:58:00,61.2,24.1,30.24,ENE,63,0.0,5.0,24,0.00,,,0.00,VWS V14.01,2013-12-15 18:58:00,
2013-12-15 12:03:00,60.3,27.1,30.25,SE,143,0.0,4.0,28,0.00,,,0.00,VWS V14.01,2013-12-15 19:03:00,
2013-12-15 12:05:00,61.6,24.5,30.24,NE,44,0.0,4.0,24,0.00,,,0.00,VWS V14.01,2013-12-15 19:05:00,
2013-12-15 12:08:00,59.7,25.7,30.25,ESE,117,1.0,4.0,27,0.00,,,0.00,VWS V14.01,2013-12-15 19:08:00,
2013-12-15 12:10:00,62.0,21.6,30.24,North,355,5.0,7.0,21,0.00,,,0.00,VWS V14.01,2013-12-15 19:10:00,
2013-12-15 12:13:00,61.8,22.6,30.24,NW,309,2.0,6.0,22,0.00,,,0.00,VWS V14.01,2013-12-15 19:13:00,
2013-12-15 12:16:00,60.3,25.3,30.25,NNE,32,2.0,4.0,26,0.00,,,0.00,VWS V14.01,2013-12-15 19:16:00,
2013-12-15 12:18:00,62.6,23.2,30.23,NNE,17,4.0,4.0,22,0.00,,,0.00,VWS V14.01,2013-12-15 19:18:00,
2013-12-15 12:23:00,63.1,23.7,30.23,ENE,65,4.0,4.0,22,0.00,,,0.00,VWS V14.01,2013-12-15 19:23:00,
2013-12-15 12:25:00,63.2,22.6,30.23,ENE,66,2.0,7.0,21,0.00,,,0.00,VWS V14.01,2013-12-15 19:25:00,
2013-12-15 12:28:00,63.0,23.6,30.23,NNE,14,2.0,5.0,22,0.00,,,0.00,VWS V14.01,2013-12-15 19:28:00,
2013-12-15 12:30:00,63.1,23.7,30.23,ENE,70,5.0,7.0,22,0.00,,,0.00,VWS V14.01,2013-12-15 19:30:00,
2013-12-15 12:33:00,61.2,25.1,30.24,ENE,64,1.0,5.0,25,0.00,,,0.00,VWS V14.01,2013-12-15 19:33:00,
2013-12-15 12:35:00,63.9,24.3,30.23,NE,46,1.0,5.0,22,0.00,,,0.00,VWS V14.01,2013-12-15 19:35:00,
2013-12-15 12:38:00,64.0,25.5,30.22,NNW,331,6.0,6.0,23,0.00,,,0.00,VWS V14.01,2013-12-15 19:38:00,
2013-12-15 12:40:00,63.9,25.4,30.22,NNW,327,8.0,8.0,23,0.00,,,0.00,VWS V14.01,2013-12-15 19:40:00,
2013-12-15 12:43:00,63.7,26.3,30.22,NNW,331,6.0,10.0,24,0.00,,,0.00,VWS V14.01,2013-12-15 19:43:00,
2013-12-15 12:45:00,63.6,26.2,30.22,NE,42,2.0,11.0,24,0.00,,,0.00,VWS V14.01,2013-12-15 19:45:00,
2013-12-15 12:48:00,62.2,24.0,30.24,NNE,17,4.0,6.0,23,0.00,,,0.00,VWS V14.01,2013-12-15 19:48:00,
2013-12-15 12:50:00,63.8,26.3,30.22,NNW,336,3.0,11.0,24,0.00,,,0.00,VWS V14.01,2013-12-15 19:50:00,
2013-12-15 12:53:00,62.7,22.2,30.23,ENE,57,0.0,4.0,21,0.00,,,0.00,VWS V14.01,2013-12-15 19:53:00,
2013-12-15 12:55:00,64.3,26.8,30.22,NNW,328,5.0,13.0,24,0.00,,,0.00,VWS V14.01,2013-12-15 19:55:00,
2013-12-15 12:58:00,63.9,26.4,30.22,NNW,339,7.0,11.0,24,0.00,,,0.00,VWS V14.01,2013-12-15 19:58:00,
2013-12-15 13:00:00,63.8,26.3,30.21,NNW,327,5.0,11.0,24,0.00,,,0.00,VWS V14.01,2013-12-15 20:00:00,
2013-12-15 13:03:00,64.0,26.5,30.21,North,5,8.0,9.0,24,0.00,,,0.00,VWS V14.01,2013-12-15 20:03:00,
2013-12-15 13:05:00,63.9,26.4,30.21,NNW,329,5.0,9.0,24,0.00,,,0.00,VWS V14.01,2013-12-15 20:05:00,
2013-12-15 13:08:00,64.2,26.7,30.21,NNW,348,6.0,7.0,24,0.00,,,0.00,VWS V14.01,2013-12-15 20:08:00,
2013-12-15 13:10:00,64.2,26.7,30.20,NNW,342,5.0,10.0,24,0.00,,,0.00,VWS V14.01,2013-12-15 20:10:00,
2013-12-15 13:13:00,63.9,26.4,30.20,NW,325,6.0,10.0,24,0.00,,,0.00,VWS V14.01,2013-12-15 20:13:00,
2013-12-15 13:15:00,64.0,26.5,30.20,NW,313,5.0,10.0,24,0.00,,,0.00,VWS V14.01,2013-12-15 20:15:00,
2013-12-15 13:18:00,64.2,26.7,30.20,North,9,6.0,8.0,24,0.00,,,0.00,VWS V14.01,2013-12-15 20:18:00,
2013-12-15 13:20:00,64.0,25.5,30.20,North,9,0.0,8.0,23,0.00,,,0.00,VWS V14.01,2013-12-15 20:20:00,
2013-12-15 13:23:00,63.6,26.2,30.19,NNW,339,0.0,7.0,24,0.00,,,0.00,VWS V14.01,2013-12-15 20:23:00,
2013-12-15 13:25:00,63.8,26.3,30.19,North,10,4.0,7.0,24,0.00,,,0.00,VWS V14.01,2013-12-15 20:25:00,
2013-12-15 13:28:00,64.3,25.7,30.19,North,5,4.0,7.0,23,0.00,,,0.00,VWS V14.01,2013-12-15 20:28:00,
2013-12-15 13:30:00,64.1,25.6,30.19,NW,319,6.0,7.0,23,0.00,,,0.00,VWS V14.01,2013-12-15 20:30:00,
2013-12-15 13:33:00,64.5,25.9,30.19,NNW,328,1.0,8.0,23,0.00,,,0.00,VWS V14.01,2013-12-15 20:33:00,
2013-12-15 13:35:00,64.3,25.7,30.19,NW,308,3.0,8.0,23,0.00,,,0.00,VWS V14.01,2013-12-15 20:35:00,
2013-12-15 13:38:00,64.2,26.7,30.19,NW,320,2.0,6.0,24,0.00,,,0.00,VWS V14.01,2013-12-15 20:38:00,
2013-12-15 13:40:00,64.4,26.9,30.19,North,360,6.0,7.0,24,0.00,,,0.00,VWS V14.01,2013-12-15 20:40:00,
2013-12-15 13:43:00,64.7,27.1,30.19,NNE,14,5.0,7.0,24,0.00,,,0.00,VWS V14.01,2013-12-15 20:43:00,
2013-12-15 13:45:00,64.8,26.2,30.19,NNW,342,6.0,8.0,23,0.00,,,0.00,VWS V14.01,2013-12-15 20:45:00,
2013-12-15 13:48:00,64.7,26.1,30.19,NNW,344,4.0,8.0,23,0.00,,,0.00,VWS V14.01,2013-12-15 20:48:00,
2013-12-15 13:50:00,64.7,26.1,30.19,North,349,5.0,8.0,23,0.00,,,0.00,VWS V14.01,2013-12-15 20:50:00,
2013-12-15 13:53:00,64.9,26.2,30.19,NNW,344,4.0,8.0,23,0.00,,,0.00,VWS V14.01,2013-12-15 20:53:00,
2013-12-15 13:55:00,65.2,26.5,30.19,NW,321,9.0,11.0,23,0.00,,,0.00,VWS V14.01,2013-12-15 20:55:00,
2013-12-15 13:58:00,65.1,25.3,30.18,North,349,7.0,11.0,22,0.00,,,0.00,VWS V14.01,2013-12-15 20:58:00,
2013-12-15 14:00:00,65.1,25.3,30.19,NNW,346,7.0,11.0,22,0.00,,,0.00,VWS V14.01,2013-12-15 21:00:00,
2013-12-15 14:03:00,65.3,25.5,30.18,North,349,10.0,10.0,22,0.00,,,0.00,VWS V14.01,2013-12-15 21:03:00,
2013-12-15 14:05:00,65.3,25.5,30.18,NNW,331,9.0,13.0,22,0.00,,,0.00,VWS V14.01,2013-12-15 21:05:00,
2013-12-15 14:08:00,65.2,25.4,30.18,NW,323,6.0,12.0,22,0.00,,,0.00,VWS V14.01,2013-12-15 21:08:00,
2013-12-15 14:10:00,65.2,25.4,30.18,NNW,330,10.0,12.0,22,0.00,,,0.00,VWS V14.01,2013-12-15 21:10:00,
2013-12-15 14:13:00,65.2,25.4,30.18,North,350,8.0,11.0,22,0.00,,,0.00,VWS V14.01,2013-12-15 21:13:00,
2013-12-15 14:15:00,65.3,25.5,30.18,NNW,336,7.0,11.0,22,0.00,,,0.00,VWS V14.01,2013-12-15 21:15:00,
2013-12-15 14:18:00,65.7,25.8,30.18,North,350,5.0,12.0,22,0.00,,,0.00,VWS V14.01,2013-12-15 21:18:00,
2013-12-15 14:20:00,65.7,24.7,30.18,North,355,6.0,12.0,21,0.00,,,0.00,VWS V14.01,2013-12-15 21:20:00,
2013-12-15 14:23:00,65.8,24.8,30.18,North,5,6.0,10.0,21,0.00,,,0.00,VWS V14.01,2013-12-15 21:23:00,
2013-12-15 14:25:00,65.9,24.9,30.18,NNW,345,3.0,10.0,21,0.00,,,0.00,VWS V14.01,2013-12-15 21:25:00,
2013-12-15 14:28:00,65.8,24.8,30.18,North,355,4.0,8.0,21,0.00,,,0.00,VWS V14.01,2013-12-15 21:28:00,
2013-12-15 14:30:00,66.0,25.0,30.18,North,10,4.0,9.0,21,0.00,,,0.00,VWS V14.01,2013-12-15 21:30:00,
2013-12-15 14:33:00,66.1,23.9,30.18,North,355,0.0,7.0,20,0.00,,,0.00,VWS V14.01,2013-12-15 21:33:00,
2013-12-15 14:35:00,66.0,23.8,30.18,North,360,5.0,9.0,20,0.00,,,0.00,VWS V14.01,2013-12-15 21:35:00,
2013-12-15 14:38:00,65.7,23.6,30.18,NNW,347,7.0,11.0,20,0.00,,,0.00,VWS V14.01,2013-12-15 21:38:00,
2013-12-15 14:40:00,65.7,23.6,30.18,North,355,2.0,11.0,20,0.00,,,0.00,VWS V14.01,2013-12-15 21:40:00,
2013-12-15 14:43:00,66.1,25.1,30.18,North,5,2.0,6.0,21,0.00,,,0.00,VWS V14.01,2013-12-15 21:43:00,
2013-12-15 14:45:00,66.1,23.9,30.18,NNW,338,4.0,7.0,20,0.00,,,0.00,VWS V14.01,2013-12-15 21:45:00,
2013-12-15 14:48:00,66.1,23.9,30.18,NNE,19,5.0,8.0,20,0.00,,,0.00,VWS V14.01,2013-12-15 21:48:00,
2013-12-15 14:50:00,66.0,23.8,30.18,NNE,16,2.0,8.0,20,0.00,,,0.00,VWS V14.01,2013-12-15 21:50:00,
2013-12-15 14:53:00,65.7,23.6,30.18,NNW,342,4.0,8.0,20,0.00,,,0.00,VWS V14.01,2013-12-15 21:53:00,
2013-12-15 14:55:00,65.7,23.6,30.18,North,350,8.0,8.0,20,0.00,,,0.00,VWS V14.01,2013-12-15 21:55:00,
2013-12-15 14:58:00,65.6,24.6,30.18,NNE,28,6.0,8.0,21,0.00,,,0.00,VWS V14.01,2013-12-15 21:58:00,
2013-12-15 15:00:00,65.6,23.5,30.18,NNE,15,5.0,11.0,20,0.00,,,0.00,VWS V14.01,2013-12-15 22:00:00,
2013-12-15 15:03:00,65.5,23.4,30.18,NNW,329,3.0,9.0,20,0.00,,,0.00,VWS V14.01,2013-12-15 22:03:00,
2013-12-15 15:05:00,65.4,23.3,30.18,NNE,12,6.0,9.0,20,0.00,,,0.00,VWS V14.01,2013-12-15 22:05:00,
2013-12-15 15:08:00,65.3,23.2,30.18,North,360,6.0,10.0,20,0.00,,,0.00,VWS V14.01,2013-12-15 22:08:00,
2013-12-15 15:10:00,65.2,23.1,30.18,North,355,4.0,10.0,20,0.00,,,0.00,VWS V14.01,2013-12-15 22:10:00,
2013-12-15 15:13:00,65.2,23.1,30.18,NNW,341,6.0,8.0,20,0.00,,,0.00,VWS V14.01,2013-12-15 22:13:00,
2013-12-15 15:15:00,65.2,23.1,30.18,North,5,7.0,9.0,20,0.00,,,0.00,VWS V14.01,2013-12-15 22:15:00,
2013-12-15 15:18:00,65.3,24.4,30.18,NNW,330,8.0,8.0,21,0.00,,,0.00,VWS V14.01,2013-12-15 22:18:00,
2013-12-15 15:20:00,65.4,24.5,30.18,NNW,329,2.0,8.0,21,0.00,,,0.00,VWS V14.01,2013-12-15 22:20:00,
2013-12-15 15:23:00,65.5,23.4,30.18,North,349,7.0,9.0,20,0.00,,,0.00,VWS V14.01,2013-12-15 22:23:00,
2013-12-15 15:25:00,65.3,23.2,30.18,North,5,7.0,10.0,20,0.00,,,0.00,VWS V14.01,2013-12-15 22:25:00,
2013-12-15 15:28:00,65.2,23.1,30.18,NW,320,7.0,10.0,20,0.00,,,0.00,VWS V14.01,2013-12-15 22:28:00,
2013-12-15 15:30:00,65.1,23.1,30.18,North,355,8.0,10.0,20,0.00,,,0.00,VWS V14.01,2013-12-15 22:30:00,
2013-12-15 15:33:00,65.1,23.1,30.18,NNW,339,5.0,9.0,20,0.00,,,0.00,VWS V14.01,2013-12-15 22:33:00,
2013-12-15 15:35:00,65.1,23.1,30.18,NW,313,8.0,9.0,20,0.00,,,0.00,VWS V14.01,2013-12-15 22:35:00,
2013-12-15 15:38:00,65.0,23.0,30.18,NNE,19,5.0,10.0,20,0.00,,,0.00,VWS V14.01,2013-12-15 22:38:00,
2013-12-15 15:40:00,65.0,23.0,30.18,NNW,341,4.0,10.0,20,0.00,,,0.00,VWS V14.01,2013-12-15 22:40:00,
2013-12-15 15:43:00,64.9,22.9,30.18,North,350,6.0,10.0,20,0.00,,,0.00,VWS V14.01,2013-12-15 22:43:00,
2013-12-15 15:45:00,64.9,22.9,30.18,North,351,7.0,10.0,20,0.00,,,0.00,VWS V14.01,2013-12-15 22:45:00,
2013-12-15 15:48:00,64.5,22.6,30.18,NNW,338,6.0,11.0,20,0.00,,,0.00,VWS V14.01,2013-12-15 22:48:00,
2013-12-15 15:50:00,64.4,22.5,30.18,North,355,7.0,12.0,20,0.00,,,0.00,VWS V14.01,2013-12-15 22:50:00,
2013-12-15 15:53:00,64.2,22.3,30.18,North,355,7.0,10.0,20,0.00,,,0.00,VWS V14.01,2013-12-15 22:53:00,
2013-12-15 15:55:00,64.1,22.2,30.18,North,355,6.0,10.0,20,0.00,,,0.00,VWS V14.01,2013-12-15 22:55:00,
2013-12-15 15:58:00,63.9,23.2,30.18,North,355,7.0,11.0,21,0.00,,,0.00,VWS V14.01,2013-12-15 22:58:00,
2013-12-15 16:00:00,63.9,23.2,30.18,NNW,333,7.0,11.0,21,0.00,,,0.00,VWS V14.01,2013-12-15 23:00:00,
2013-12-15 16:03:00,63.6,23.0,30.18,North,355,4.0,12.0,21,0.00,,,0.00,VWS V14.01,2013-12-15 23:03:00,
2013-12-15 16:05:00,63.6,24.1,30.18,North,355,6.0,12.0,22,0.00,,,0.00,VWS V14.01,2013-12-15 23:05:00,
2013-12-15 16:08:00,63.5,24.0,30.18,North,355,5.0,8.0,22,0.00,,,0.00,VWS V14.01,2013-12-15 23:08:00,
2013-12-15 16:10:00,63.4,23.9,30.18,NNE,16,7.0,9.0,22,0.00,,,0.00,VWS V14.01,2013-12-15 23:10:00,
2013-12-15 16:13:00,63.2,25.8,30.18,NE,46,0.0,7.0,24,0.00,,,0.00,VWS V14.01,2013-12-15 23:13:00,
2013-12-15 16:15:00,63.2,25.8,30.18,NE,46,0.0,7.0,24,0.00,,,0.00,VWS V14.01,2013-12-15 23:15:00,
2013-12-15 16:18:00,63.0,26.6,30.18,NE,46,0.0,0.0,25,0.00,,,0.00,VWS V14.01,2013-12-15 23:18:00,
2013-12-15 16:20:00,62.8,28.4,30.18,NE,46,0.0,0.0,27,0.00,,,0.00,VWS V14.01,2013-12-15 23:20:00,
2013-12-15 16:23:00,62.1,29.5,30.18,NE,46,0.0,1.0,29,0.00,,,0.00,VWS V14.01,2013-12-15 23:23:00,
2013-12-15 16:25:00,62.0,29.4,30.18,NE,50,1.0,3.0,29,0.00,,,0.00,VWS V14.01,2013-12-15 23:25:00,
2013-12-15 16:28:00,61.6,29.1,30.18,NE,50,1.0,2.0,29,0.00,,,0.00,VWS V14.01,2013-12-15 23:28:00,
2013-12-15 16:30:00,61.4,28.9,30.18,NE,50,0.0,2.0,29,0.00,,,0.00,VWS V14.01,2013-12-15 23:30:00,
2013-12-15 16:33:00,61.1,28.6,30.18,NE,46,0.0,1.0,29,0.00,,,0.00,VWS V14.01,2013-12-15 23:33:00,
2013-12-15 16:35:00,61.0,28.5,30.18,NE,46,0.0,1.0,29,0.00,,,0.00,VWS V14.01,2013-12-15 23:35:00,
2013-12-15 16:38:00,60.7,29.1,30.18,NE,46,1.0,1.0,30,0.00,,,0.00,VWS V14.01,2013-12-15 23:38:00,
2013-12-15 16:40:00,60.4,28.9,30.18,NE,46,1.0,2.0,30,0.00,,,0.00,VWS V14.01,2013-12-15 23:40:00,
2013-12-15 16:43:00,59.8,29.1,30.18,NE,46,0.0,2.0,31,0.00,,,0.00,VWS V14.01,2013-12-15 23:43:00,
2013-12-15 16:45:00,59.6,29.0,30.18,NE,46,0.0,2.0,31,0.00,,,0.00,VWS V14.01,2013-12-15 23:45:00,
2013-12-15 16:48:00,59.1,28.5,30.18,NNE,15,2.0,4.0,31,0.00,,,0.00,VWS V14.01,2013-12-15 23:48:00,
2013-12-15 16:50:00,58.9,27.5,30.18,NNE,16,3.0,4.0,30,0.00,,,0.00,VWS V14.01,2013-12-15 23:50:00,
2013-12-15 16:53:00,58.6,25.6,30.18,North,350,3.0,4.0,28,0.00,,,0.00,VWS V14.01,2013-12-15 23:53:00,
2013-12-15 16:55:00,58.5,25.5,30.18,North,355,1.0,4.0,28,0.00,,,0.00,VWS V14.01,2013-12-15 23:55:00,
2013-12-15 16:58:00,58.2,25.3,30.18,NNW,347,3.0,5.0,28,0.00,,,0.00,VWS V14.01,2013-12-15 23:58:00,
2013-12-15 17:00:00,58.1,25.2,30.18,North,355,3.0,5.0,28,0.00,,,0.00,VWS V14.01,2013-12-16 00:00:00,
2013-12-15 17:03:00,57.9,25.0,30.18,North,351,4.0,5.0,28,0.00,,,0.00,VWS V14.01,2013-12-16 00:03:00,
2013-12-15 17:05:00,57.8,24.9,30.18,North,351,4.0,5.0,28,0.00,,,0.00,VWS V14.01,2013-12-16 00:05:00,
2013-12-15 17:08:00,57.5,25.5,30.18,North,355,3.0,4.0,29,0.00,,,0.00,VWS V14.01,2013-12-16 00:08:00,
2013-12-15 17:10:00,57.3,25.3,30.18,North,355,3.0,4.0,29,0.00,,,0.00,VWS V14.01,2013-12-16 00:10:00,
2013-12-15 17:13:00,56.7,24.8,30.18,North,355,2.0,3.0,29,0.00,,,0.00,VWS V14.01,2013-12-16 00:13:00,
2013-12-15 17:15:00,56.5,25.5,30.18,North,350,3.0,4.0,30,0.00,,,0.00,VWS V14.01,2013-12-16 00:15:00,
2013-12-15 17:18:00,56.2,25.2,30.18,North,355,3.0,5.0,30,0.00,,,0.00,VWS V14.01,2013-12-16 00:18:00,
2013-12-15 17:20:00,56.1,25.1,30.18,NNW,348,4.0,5.0,30,0.00,,,0.00,VWS V14.01,2013-12-16 00:20:00,
2013-12-15 17:23:00,56.0,24.2,30.18,NNW,335,6.0,7.0,29,0.00,,,0.00,VWS V14.01,2013-12-16 00:23:00,
2013-12-15 17:25:00,56.0,24.2,30.18,NNW,346,5.0,7.0,29,0.00,,,0.00,VWS V14.01,2013-12-16 00:25:00,
2013-12-15 17:28:00,55.9,24.1,30.18,NNW,328,5.0,7.0,29,0.00,,,0.00,VWS V14.01,2013-12-16 00:28:00,
2013-12-15 17:30:00,55.9,24.1,30.18,NNW,345,5.0,7.0,29,0.00,,,0.00,VWS V14.01,2013-12-16 00:30:00,
2013-12-15 17:33:00,55.9,24.1,30.18,NNW,331,4.0,8.0,29,0.00,,,0.00,VWS V14.01,2013-12-16 00:33:00,
2013-12-15 17:35:00,55.9,24.1,30.18,NNW,336,5.0,8.0,29,0.00,,,0.00,VWS V14.01,2013-12-16 00:35:00,
2013-12-15 17:38:00,56.0,23.4,30.19,NNW,343,4.0,9.0,28,0.00,,,0.00,VWS V14.01,2013-12-16 00:38:00,
2013-12-15 17:40:00,56.0,23.4,30.19,NNW,345,9.0,9.0,28,0.00,,,0.00,VWS V14.01,2013-12-16 00:40:00,
2013-12-15 17:43:00,56.1,23.5,30.18,NNW,342,5.0,9.0,28,0.00,,,0.00,VWS V14.01,2013-12-16 00:43:00,
2013-12-15 17:45:00,56.1,23.5,30.18,NNW,333,4.0,9.0,28,0.00,,,0.00,VWS V14.01,2013-12-16 00:45:00,
2013-12-15 17:48:00,56.1,23.5,30.19,NNW,340,4.0,8.0,28,0.00,,,0.00,VWS V14.01,2013-12-16 00:48:00,
2013-12-15 17:50:00,56.1,23.5,30.19,NNW,334,7.0,8.0,28,0.00,,,0.00,VWS V14.01,2013-12-16 00:50:00,
2013-12-15 17:53:00,56.0,23.4,30.19,NNW,341,5.0,9.0,28,0.00,,,0.00,VWS V14.01,2013-12-16 00:53:00,
2013-12-15 17:55:00,56.0,23.4,30.19,NW,323,5.0,9.0,28,0.00,,,0.00,VWS V14.01,2013-12-16 00:55:00,
2013-12-15 17:58:00,56.0,23.4,30.19,NW,319,6.0,9.0,28,0.00,,,0.00,VWS V14.01,2013-12-16 00:58:00,
2013-12-15 18:00:00,56.0,22.5,30.19,NW,321,5.0,9.0,27,0.00,,,0.00,VWS V14.01,2013-12-16 01:00:00,
2013-12-15 18:03:00,56.1,22.6,30.19,NW,323,3.0,9.0,27,0.00,,,0.00,VWS V14.01,2013-12-16 01:03:00,
2013-12-15 18:05:00,56.1,23.5,30.19,North,355,7.0,9.0,28,0.00,,,0.00,VWS V14.01,2013-12-16 01:05:00,
2013-12-15 18:08:00,56.1,23.5,30.19,NNW,338,4.0,10.0,28,0.00,,,0.00,VWS V14.01,2013-12-16 01:08:00,
2013-12-15 18:10:00,56.1,22.6,30.19,North,360,7.0,10.0,27,0.00,,,0.00,VWS V14.01,2013-12-16 01:10:00,
2013-12-15 18:13:00,56.1,22.6,30.19,NNW,336,6.0,10.0,27,0.00,,,0.00,VWS V14.01,2013-12-16 01:13:00,
2013-12-15 18:15:00,56.1,22.6,30.19,NNW,329,5.0,10.0,27,0.00,,,0.00,VWS V14.01,2013-12-16 01:15:00,
2013-12-15 18:18:00,56.0,22.5,30.19,NNW,327,10.0,10.0,27,0.00,,,0.00,VWS V14.01,2013-12-16 01:18:00,
2013-12-15 18:20:00,55.9,22.4,30.19,NNW,330,4.0,10.0,27,0.00,,,0.00,VWS V14.01,2013-12-16 01:20:00,
2013-12-15 18:23:00,55.7,23.1,30.19,North,360,4.0,7.0,28,0.00,,,0.00,VWS V14.01,2013-12-16 01:23:00,
2013-12-15 18:25:00,55.7,23.1,30.19,NNW,341,7.0,9.0,28,0.00,,,0.00,VWS V14.01,2013-12-16 01:25:00,
2013-12-15 18:28:00,55.5,23.0,30.19,NNW,341,8.0,8.0,28,0.00,,,0.00,VWS V14.01,2013-12-16 01:28:00,
2013-12-15 18:30:00,55.5,23.0,30.19,NNW,334,6.0,9.0,28,0.00,,,0.00,VWS V14.01,2013-12-16 01:30:00,
2013-12-15 18:33:00,55.5,23.0,30.19,NNW,339,4.0,9.0,28,0.00,,,0.00,VWS V14.01,2013-12-16 01:33:00,
2013-12-15 18:35:00,55.4,22.9,30.19,North,5,5.0,9.0,28,0.00,,,0.00,VWS V14.01,2013-12-16 01:35:00,
2013-12-15 18:38:00,55.4,22.9,30.19,NNW,340,5.0,9.0,28,0.00,,,0.00,VWS V14.01,2013-12-16 01:38:00,
2013-12-15 18:40:00,55.4,22.9,30.19,NW,314,4.0,9.0,28,0.00,,,0.00,VWS V14.01,2013-12-16 01:40:00,
2013-12-15 18:43:00,55.3,22.8,30.20,NNW,328,7.0,10.0,28,0.00,,,0.00,VWS V14.01,2013-12-16 01:43:00,
2013-12-15 18:45:00,55.3,22.8,30.20,North,355,8.0,10.0,28,0.00,,,0.00,VWS V14.01,2013-12-16 01:45:00,
2013-12-15 18:48:00,55.3,22.8,30.20,North,349,6.0,9.0,28,0.00,,,0.00,VWS V14.01,2013-12-16 01:48:00,
2013-12-15 18:50:00,55.2,22.7,30.20,NNW,336,7.0,9.0,28,0.00,,,0.00,VWS V14.01,2013-12-16 01:50:00,
2013-12-15 18:53:00,55.2,22.7,30.19,NNW,345,6.0,8.0,28,0.00,,,0.00,VWS V14.01,2013-12-16 01:53:00,
2013-12-15 18:55:00,55.2,22.7,30.20,NNW,336,4.0,8.0,28,0.00,,,0.00,VWS V14.01,2013-12-16 01:55:00,
2013-12-15 18:58:00,55.1,22.6,30.20,NNW,346,5.0,7.0,28,0.00,,,0.00,VWS V14.01,2013-12-16 01:58:00,
2013-12-15 19:00:00,55.1,22.6,30.19,North,355,5.0,7.0,28,0.00,,,0.00,VWS V14.01,2013-12-16 02:00:00,
2013-12-15 19:04:00,55.0,22.5,30.20,NNW,330,6.0,8.0,28,0.00,,,0.00,VWS V14.01,2013-12-16 02:04:00,
2013-12-15 19:05:00,55.1,22.6,30.20,North,360,5.0,8.0,28,0.00,,,0.00,VWS V14.01,2013-12-16 02:05:00,
2013-12-15 19:09:00,55.0,22.5,30.19,NNW,335,3.0,8.0,28,0.00,,,0.00,VWS V14.01,2013-12-16 02:09:00,
2013-12-15 19:10:00,55.0,22.5,30.20,NNW,346,4.0,8.0,28,0.00,,,0.00,VWS V14.01,2013-12-16 02:10:00,
2013-12-15 19:14:00,54.9,22.4,30.20,North,5,6.0,7.0,28,0.00,,,0.00,VWS V14.01,2013-12-16 02:14:00,
2013-12-15 19:15:00,54.9,22.4,30.19,NNW,333,6.0,7.0,28,0.00,,,0.00,VWS V14.01,2013-12-16 02:15:00,
2013-12-15 19:19:00,54.8,22.3,30.20,NNW,334,5.0,7.0,28,0.00,,,0.00,VWS V14.01,2013-12-16 02:19:00,
2013-12-15 19:20:00,54.8,22.3,30.20,NNW,330,5.0,7.0,28,0.00,,,0.00,VWS V14.01,2013-12-16 02:20:00,
2013-12-15 19:24:00,54.7,23.1,30.20,North,355,6.0,7.0,29,0.00,,,0.00,VWS V14.01,2013-12-16 02:24:00,
2013-12-15 19:25:00,54.7,22.3,30.20,North,355,5.0,8.0,28,0.00,,,0.00,VWS V14.01,2013-12-16 02:25:00,
2013-12-15 19:29:00,54.7,23.1,30.20,NNW,348,3.0,8.0,29,0.00,,,0.00,VWS V14.01,2013-12-16 02:29:00,
2013-12-15 19:30:00,54.7,23.1,30.20,North,360,5.0,8.0,29,0.00,,,0.00,VWS V14.01,2013-12-16 02:30:00,
2013-12-15 19:34:00,54.7,23.1,30.20,NNW,342,5.0,8.0,29,0.00,,,0.00,VWS V14.01,2013-12-16 02:34:00,
2013-12-15 19:35:00,54.7,23.1,30.20,NNW,328,6.0,8.0,29,0.00,,,0.00,VWS V14.01,2013-12-16 02:35:00,
2013-12-15 19:39:00,54.8,23.2,30.20,NNW,332,5.0,8.0,29,0.00,,,0.00,VWS V14.01,2013-12-16 02:39:00,
2013-12-15 19:40:00,54.8,23.2,30.20,NNW,342,5.0,8.0,29,0.00,,,0.00,VWS V14.01,2013-12-16 02:40:00,
2013-12-15 19:44:00,54.8,23.2,30.20,NNW,344,5.0,7.0,29,0.00,,,0.00,VWS V14.01,2013-12-16 02:44:00,
2013-12-15 19:45:00,54.7,23.1,30.20,NNW,338,3.0,7.0,29,0.00,,,0.00,VWS V14.01,2013-12-16 02:45:00,
2013-12-15 19:49:00,54.6,23.0,30.20,North,350,4.0,8.0,29,0.00,,,0.00,VWS V14.01,2013-12-16 02:49:00,
2013-12-15 19:50:00,54.6,23.0,30.20,NW,319,4.0,8.0,29,0.00,,,0.00,VWS V14.01,2013-12-16 02:50:00,
2013-12-15 19:54:00,54.4,22.8,30.19,NNW,347,7.0,8.0,29,0.00,,,0.00,VWS V14.01,2013-12-16 02:54:00,
2013-12-15 19:55:00,54.4,22.8,30.19,NNW,347,5.0,8.0,29,0.00,,,0.00,VWS V14.01,2013-12-16 02:55:00,
2013-12-15 19:59:00,54.3,22.7,30.19,NW,317,4.0,7.0,29,0.00,,,0.00,VWS V14.01,2013-12-16 02:59:00,
2013-12-15 20:00:00,54.2,22.6,30.19,North,349,4.0,7.0,29,0.00,,,0.00,VWS V14.01,2013-12-16 03:00:00,
2013-12-15 20:04:00,53.9,23.2,30.19,NNW,347,6.0,8.0,30,0.00,,,0.00,VWS V14.01,2013-12-16 03:04:00,
2013-12-15 20:05:00,53.9,23.2,30.19,NNW,334,8.0,8.0,30,0.00,,,0.00,VWS V14.01,2013-12-16 03:05:00,
2013-12-15 20:09:00,53.6,22.9,30.19,NNW,346,5.0,8.0,30,0.00,,,0.00,VWS V14.01,2013-12-16 03:09:00,
2013-12-15 20:10:00,53.5,22.9,30.19,NNW,346,4.0,8.0,30,0.00,,,0.00,VWS V14.01,2013-12-16 03:10:00,
2013-12-15 20:14:00,53.3,23.5,30.20,NNW,342,3.0,10.0,31,0.00,,,0.00,VWS V14.01,2013-12-16 03:14:00,
2013-12-15 20:15:00,53.3,23.5,30.20,NNW,348,4.0,10.0,31,0.00,,,0.00,VWS V14.01,2013-12-16 03:15:00,
2013-12-15 20:19:00,53.1,23.3,30.19,NW,322,6.0,7.0,31,0.00,,,0.00,VWS V14.01,2013-12-16 03:19:00,
2013-12-15 20:20:00,53.1,23.3,30.19,NNW,340,6.0,7.0,31,0.00,,,0.00,VWS V14.01,2013-12-16 03:20:00,
2013-12-15 20:24:00,52.9,23.1,30.19,NNW,348,5.0,9.0,31,0.00,,,0.00,VWS V14.01,2013-12-16 03:24:00,
2013-12-15 20:25:00,52.9,23.1,30.19,NW,306,6.0,9.0,31,0.00,,,0.00,VWS V14.01,2013-12-16 03:25:00,
2013-12-15 20:29:00,52.8,23.8,30.19,NNW,333,5.0,8.0,32,0.00,,,0.00,VWS V14.01,2013-12-16 03:29:00,
2013-12-15 20:30:00,52.8,23.8,30.19,NNW,344,5.0,8.0,32,0.00,,,0.00,VWS V14.01,2013-12-16 03:30:00,
2013-12-15 20:34:00,52.6,23.6,30.19,NNW,329,3.0,7.0,32,0.00,,,0.00,VWS V14.01,2013-12-16 03:34:00,
2013-12-15 20:35:00,52.5,23.5,30.19,NNW,329,4.0,7.0,32,0.00,,,0.00,VWS V14.01,2013-12-16 03:35:00,
2013-12-15 20:39:00,52.3,23.3,30.19,NW,324,5.0,7.0,32,0.00,,,0.00,VWS V14.01,2013-12-16 03:39:00,
2013-12-15 20:40:00,52.3,23.3,30.19,North,355,6.0,8.0,32,0.00,,,0.00,VWS V14.01,2013-12-16 03:40:00,
2013-12-15 20:44:00,52.4,23.4,30.19,NNW,331,2.0,9.0,32,0.00,,,0.00,VWS V14.01,2013-12-16 03:44:00,
2013-12-15 20:45:00,52.4,23.4,30.19,NW,318,4.0,9.0,32,0.00,,,0.00,VWS V14.01,2013-12-16 03:45:00,
2013-12-15 20:49:00,52.2,24.0,30.19,NW,320,4.0,7.0,33,0.00,,,0.00,VWS V14.01,2013-12-16 03:49:00,
2013-12-15 20:50:00,52.2,24.0,30.19,NNW,332,4.0,7.0,33,0.00,,,0.00,VWS V14.01,2013-12-16 03:50:00,
2013-12-15 20:54:00,52.2,24.0,30.19,North,355,5.0,7.0,33,0.00,,,0.00,VWS V14.01,2013-12-16 03:54:00,
2013-12-15 20:55:00,52.2,24.0,30.19,NNW,347,3.0,7.0,33,0.00,,,0.00,VWS V14.01,2013-12-16 03:55:00,
2013-12-15 20:59:00,52.1,23.9,30.19,NNW,330,4.0,6.0,33,0.00,,,0.00,VWS V14.01,2013-12-16 03:59:00,
2013-12-15 21:00:00,52.1,23.9,30.19,NW,320,5.0,6.0,33,0.00,,,0.00,VWS V14.01,2013-12-16 04:00:00,
2013-12-15 21:04:00,52.0,23.8,30.19,NNW,330,2.0,6.0,33,0.00,,,0.00,VWS V14.01,2013-12-16 04:04:00,
2013-12-15 21:05:00,52.0,23.8,30.19,NNW,335,3.0,6.0,33,0.00,,,0.00,VWS V14.01,2013-12-16 04:05:00,
2013-12-15 21:09:00,51.9,23.7,30.19,NW,325,4.0,6.0,33,0.00,,,0.00,VWS V14.01,2013-12-16 04:09:00,
2013-12-15 21:10:00,51.9,23.7,30.19,NW,315,5.0,6.0,33,0.00,,,0.00,VWS V14.01,2013-12-16 04:10:00,
2013-12-15 21:14:00,52.0,23.8,30.19,NNW,336,4.0,6.0,33,0.00,,,0.00,VWS V14.01,2013-12-16 04:14:00,
2013-12-15 21:15:00,52.0,23.8,30.19,NNW,342,4.0,6.0,33,0.00,,,0.00,VWS V14.01,2013-12-16 04:15:00,
2013-12-15 21:19:00,52.1,23.9,30.19,NNW,332,5.0,6.0,33,0.00,,,0.00,VWS V14.01,2013-12-16 04:19:00,
2013-12-15 21:20:00,52.1,23.9,30.19,NW,314,4.0,6.0,33,0.00,,,0.00,VWS V14.01,2013-12-16 04:20:00,
2013-12-15 21:24:00,52.3,24.1,30.19,NNW,338,4.0,10.0,33,0.00,,,0.00,VWS V14.01,2013-12-16 04:24:00,
2013-12-15 21:25:00,52.3,24.1,30.19,NNW,332,6.0,10.0,33,0.00,,,0.00,VWS V14.01,2013-12-16 04:25:00,
2013-12-15 21:29:00,52.4,23.4,30.19,NNW,336,4.0,7.0,32,0.00,,,0.00,VWS V14.01,2013-12-16 04:29:00,
2013-12-15 21:30:00,52.4,23.4,30.19,NNW,333,7.0,7.0,32,0.00,,,0.00,VWS V14.01,2013-12-16 04:30:00,
2013-12-15 21:34:00,52.4,23.4,30.19,North,349,3.0,8.0,32,0.00,,,0.00,VWS V14.01,2013-12-16 04:34:00,
2013-12-15 21:35:00,52.4,23.4,30.19,NW,317,5.0,8.0,32,0.00,,,0.00,VWS V14.01,2013-12-16 04:35:00,
2013-12-15 21:39:00,52.4,23.4,30.19,NNW,340,3.0,10.0,32,0.00,,,0.00,VWS V14.01,2013-12-16 04:39:00,
2013-12-15 21:40:00,52.4,23.4,30.19,NNW,345,4.0,10.0,32,0.00,,,0.00,VWS V14.01,2013-12-16 04:40:00,
2013-12-15 21:44:00,52.3,23.3,30.20,NNW,329,2.0,7.0,32,0.00,,,0.00,VWS V14.01,2013-12-16 04:44:00,
2013-12-15 21:45:00,52.3,23.3,30.20,NNW,333,4.0,7.0,32,0.00,,,0.00,VWS V14.01,2013-12-16 04:45:00,
2013-12-15 21:49:00,52.2,23.2,30.20,NNW,333,4.0,6.0,32,0.00,,,0.00,VWS V14.01,2013-12-16 04:49:00,
2013-12-15 21:50:00,52.2,23.2,30.20,NNW,336,4.0,6.0,32,0.00,,,0.00,VWS V14.01,2013-12-16 04:50:00,
2013-12-15 21:54:00,52.2,23.2,30.20,North,355,5.0,7.0,32,0.00,,,0.00,VWS V14.01,2013-12-16 04:54:00,
2013-12-15 21:55:00,52.2,23.2,30.20,NNW,348,4.0,7.0,32,0.00,,,0.00,VWS V14.01,2013-12-16 04:55:00,
2013-12-15 21:59:00,52.2,23.2,30.20,NNW,335,5.0,7.0,32,0.00,,,0.00,VWS V14.01,2013-12-16 04:59:00,
2013-12-15 22:00:00,52.2,23.2,30.20,NNW,327,3.0,7.0,32,0.00,,,0.00,VWS V14.01,2013-12-16 05:00:00,
2013-12-15 22:04:00,52.2,24.0,30.20,North,355,4.0,7.0,33,0.00,,,0.00,VWS V14.01,2013-12-16 05:04:00,
2013-12-15 22:05:00,52.2,24.0,30.20,NW,319,3.0,7.0,33,0.00,,,0.00,VWS V14.01,2013-12-16 05:05:00,
2013-12-15 22:09:00,52.0,23.8,30.20,NNW,336,4.0,6.0,33,0.00,,,0.00,VWS V14.01,2013-12-16 05:09:00,
2013-12-15 22:10:00,52.0,23.8,30.20,NW,319,3.0,6.0,33,0.00,,,0.00,VWS V14.01,2013-12-16 05:10:00,
2013-12-15 22:14:00,52.0,23.8,30.20,NNW,334,4.0,6.0,33,0.00,,,0.00,VWS V14.01,2013-12-16 05:14:00,
2013-12-15 22:15:00,51.9,23.7,30.20,NW,321,4.0,6.0,33,0.00,,,0.00,VWS V14.01,2013-12-16 05:15:00,
2013-12-15 22:19:00,51.9,23.7,30.20,NNW,341,3.0,6.0,33,0.00,,,0.00,VWS V14.01,2013-12-16 05:19:00,
2013-12-15 22:20:00,51.8,23.6,30.20,NNW,337,2.0,6.0,33,0.00,,,0.00,VWS V14.01,2013-12-16 05:20:00,
2013-12-15 22:24:00,51.7,23.5,30.20,NNW,335,4.0,6.0,33,0.00,,,0.00,VWS V14.01,2013-12-16 05:24:00,
2013-12-15 22:25:00,51.7,23.5,30.20,North,355,4.0,6.0,33,0.00,,,0.00,VWS V14.01,2013-12-16 05:25:00,
2013-12-15 22:29:00,51.6,23.5,30.20,NNW,342,5.0,7.0,33,0.00,,,0.00,VWS V14.01,2013-12-16 05:29:00,
2013-12-15 22:30:00,51.6,23.5,30.19,NNW,345,5.0,7.0,33,0.00,,,0.00,VWS V14.01,2013-12-16 05:30:00,
2013-12-15 22:34:00,51.5,23.4,30.19,NNW,344,5.0,7.0,33,0.00,,,0.00,VWS V14.01,2013-12-16 05:34:00,
2013-12-15 22:35:00,51.5,23.4,30.19,NNW,338,4.0,7.0,33,0.00,,,0.00,VWS V14.01,2013-12-16 05:35:00,
2013-12-15 22:39:00,51.5,23.4,30.19,NW,325,5.0,8.0,33,0.00,,,0.00,VWS V14.01,2013-12-16 05:39:00,
2013-12-15 22:40:00,51.5,23.4,30.19,NNW,341,5.0,8.0,33,0.00,,,0.00,VWS V14.01,2013-12-16 05:40:00,
2013-12-15 22:44:00,51.5,23.4,30.19,NW,323,4.0,9.0,33,0.00,,,0.00,VWS V14.01,2013-12-16 05:44:00,
2013-12-15 22:45:00,51.5,23.4,30.19,North,349,5.0,9.0,33,0.00,,,0.00,VWS V14.01,2013-12-16 05:45:00,
2013-12-15 22:49:00,51.5,23.4,30.19,NNW,328,5.0,9.0,33,0.00,,,0.00,VWS V14.01,2013-12-16 05:49:00,
2013-12-15 22:50:00,51.5,23.4,30.19,NNW,328,5.0,9.0,33,0.00,,,0.00,VWS V14.01,2013-12-16 05:50:00,
2013-12-15 22:54:00,51.5,23.4,30.19,NW,311,7.0,8.0,33,0.00,,,0.00,VWS V14.01,2013-12-16 05:54:00,
2013-12-15 22:55:00,51.5,23.4,30.19,NNW,331,7.0,8.0,33,0.00,,,0.00,VWS V14.01,2013-12-16 05:55:00,
2013-12-15 22:59:00,51.4,23.3,30.20,NNW,343,2.0,9.0,33,0.00,,,0.00,VWS V14.01,2013-12-16 05:59:00,
2013-12-15 23:00:00,51.3,23.2,30.20,NW,309,3.0,9.0,33,0.00,,,0.00,VWS V14.01,2013-12-16 06:00:00,
2013-12-15 23:04:00,51.1,23.7,30.19,NNW,341,5.0,7.0,34,0.00,,,0.00,VWS V14.01,2013-12-16 06:04:00,
2013-12-15 23:05:00,51.1,23.7,30.20,NNW,338,5.0,8.0,34,0.00,,,0.00,VWS V14.01,2013-12-16 06:05:00,
2013-12-15 23:09:00,51.0,23.6,30.20,NNW,329,3.0,9.0,34,0.00,,,0.00,VWS V14.01,2013-12-16 06:09:00,
2013-12-15 23:10:00,51.0,23.6,30.20,NNW,346,5.0,9.0,34,0.00,,,0.00,VWS V14.01,2013-12-16 06:10:00,
2013-12-15 23:14:00,50.8,23.5,30.20,North,355,6.0,6.0,34,0.00,,,0.00,VWS V14.01,2013-12-16 06:14:00,
2013-12-15 23:15:00,50.8,23.5,30.20,NW,319,3.0,6.0,34,0.00,,,0.00,VWS V14.01,2013-12-16 06:15:00,
2013-12-15 23:19:00,50.6,23.3,30.20,NNW,327,4.0,7.0,34,0.00,,,0.00,VWS V14.01,2013-12-16 06:19:00,
2013-12-15 23:20:00,50.7,24.1,30.20,NNW,329,4.0,7.0,35,0.00,,,0.00,VWS V14.01,2013-12-16 06:20:00,
2013-12-15 23:24:00,50.6,24.0,30.20,NW,317,5.0,6.0,35,0.00,,,0.00,VWS V14.01,2013-12-16 06:24:00,
2013-12-15 23:25:00,50.5,23.9,30.20,NNW,328,4.0,6.0,35,0.00,,,0.00,VWS V14.01,2013-12-16 06:25:00,
2013-12-15 23:29:00,50.5,23.9,30.20,WNW,301,6.0,8.0,35,0.00,,,0.00,VWS V14.01,2013-12-16 06:29:00,
2013-12-15 23:30:00,50.6,24.0,30.20,NNW,329,4.0,8.0,35,0.00,,,0.00,VWS V14.01,2013-12-16 06:30:00,
2013-12-15 23:34:00,50.5,23.9,30.19,NNW,331,2.0,7.0,35,0.00,,,0.00,VWS V14.01,2013-12-16 06:34:00,
2013-12-15 23:35:00,50.5,23.9,30.19,NNW,345,5.0,7.0,35,0.00,,,0.00,VWS V14.01,2013-12-16 06:35:00,
2013-12-15 23:39:00,50.4,23.8,30.19,NNW,331,4.0,5.0,35,0.00,,,0.00,VWS V14.01,2013-12-16 06:39:00,
2013-12-15 23:40:00,50.4,23.8,30.19,NNW,330,3.0,5.0,35,0.00,,,0.00,VWS V14.01,2013-12-16 06:40:00,
2013-12-15 23:44:00,50.3,23.7,30.19,NNW,335,3.0,7.0,35,0.00,,,0.00,VWS V14.01,2013-12-16 06:44:00,
2013-12-15 23:45:00,50.3,23.7,30.19,NW,324,3.0,7.0,35,0.00,,,0.00,VWS V14.01,2013-12-16 06:45:00,
2013-12-15 23:49:00,50.2,23.6,30.19,NNW,343,3.0,7.0,35,0.00,,,0.00,VWS V14.01,2013-12-16 06:49:00,
2013-12-15 23:50:00,50.2,23.6,30.19,NW,320,3.0,7.0,35,0.00,,,0.00,VWS V14.01,2013-12-16 06:50:00,
2013-12-15 23:54:00,50.1,23.5,30.19,NNW,346,2.0,6.0,35,0.00,,,0.00,VWS V14.01,2013-12-16 06:54:00,
2013-12-15 23:55:00,50.1,23.5,30.19,NW,319,2.0,6.0,35,0.00,,,0.00,VWS V14.01,2013-12-16 06:55:00,
2013-12-15 23:59:00,50.1,23.5,30.19,NNW,327,2.0,7.0,35,0.00,,,0.00,VWS V14.01,2013-12-16 06:59:00,